OK2ZA-6 Weather Reports


time (UTC)temp
F
wind
direction
speed
knots
gust
knots
rain 1hr
in
rain 24hr
in
rain mn
in
humidity
%
barometer
mb
20260504020004 54 112 6.1 11.3 0.00 0.00 0.00 57 1014.4
20260504015003 55 115 7.0 11.3 0.00 0.00 0.00 56 1014.5
20260504014004 55 110 7.0 11.3 0.00 0.00 0.00 55 1014.5
20260504013004 55 111 7.0 11.3 0.00 0.00 0.00 55 1014.5
20260504012004 55 111 7.0 13.0 0.00 0.00 0.00 54 1014.4
20260504011004 55 111 7.8 13.0 0.00 0.00 0.00 54 1014.3
20260504010004 55 106 7.0 11.3 0.00 0.00 0.00 53 1014.3
20260504005004 56 106 7.8 11.3 0.00 0.00 0.00 52 1014.3
20260504004003 56 105 7.0 14.8 0.00 0.00 0.00 52 1014.5
20260504003004 56 105 7.8 13.0 0.00 0.00 0.00 51 1014.5
20260504002004 56 102 7.0 13.0 0.00 0.00 0.00 51 1014.5
20260504001004 56 103 7.8 13.9 0.00 0.00 0.00 50 1014.6
20260504000004 57 103 7.8 13.9 0.00 0.00 0.00 50 1014.5
20260503235004 57 106 7.8 13.9 0.00 0.00 0.00 50 1014.6
20260503234003 57 108 7.8 13.0 0.00 0.00 0.00 49 1014.7
20260503233004 57 105 7.8 13.0 0.00 0.00 0.00 49 1014.7
20260503232003 57 101 8.7 13.9 0.00 0.00 0.00 49 1014.8
20260503231004 57 104 7.0 13.0 0.00 0.00 0.00 48 1014.8
20260503230004 57 102 7.0 13.0 0.00 0.00 0.00 48 1014.8
20260503225004 57 99 7.0 11.3 0.00 0.00 0.00 48 1015.0
20260503224003 57 101 7.0 11.3 0.00 0.00 0.00 48 1015.0
20260503223003 58 102 6.1 11.3 0.00 0.00 0.00 48 1015.1
20260503222003 58 105 7.8 11.3 0.00 0.00 0.00 48 1015.1
20260503221003 58 103 6.1 11.3 0.00 0.00 0.00 48 1015.1
20260503220005 58 106 6.1 12.2 0.00 0.00 0.00 48 1015.2
20260503215004 58 110 7.0 13.0 0.00 0.00 0.00 48 1015.2
20260503214003 58 111 7.8 13.0 0.00 0.00 0.00 48 1015.1
20260503213003 59 113 7.8 13.0 0.00 0.00 0.00 48 1015.1
20260503212003 59 112 7.0 13.0 0.00 0.00 0.00 48 1015.1
20260503211004 59 106 7.0 13.0 0.00 0.00 0.00 48 1015.0
20260503210005 59 112 7.0 11.3 0.00 0.00 0.00 48 1015.2
20260503205004 60 112 7.8 14.8 0.00 0.00 0.00 48 1015.2
20260503204003 60 105 7.8 13.0 0.00 0.00 0.00 48 1015.1
20260503203003 61 109 8.7 14.8 0.00 0.00 0.00 48 1015.2
20260503202004 61 111 8.7 14.8 0.00 0.00 0.00 48 1015.2
20260503201004 61 108 8.7 14.8 0.00 0.00 0.00 49 1015.2
20260503200004 61 110 8.7 13.9 0.00 0.00 0.00 49 1015.3
20260503195004 62 108 7.8 12.2 0.00 0.00 0.00 49 1015.5
20260503194004 62 105 7.0 12.2 0.00 0.00 0.00 50 1015.7
20260503193004 62 111 6.1 10.4 0.00 0.00 0.00 50 1015.7
20260503192004 63 115 5.2 8.7 0.00 0.00 0.00 49 1015.7
20260503191004 63 115 6.1 11.3 0.00 0.00 0.00 48 1015.7
20260503190004 63 117 6.1 10.4 0.00 0.00 0.00 48 1015.7
20260503185004 64 120 7.0 11.3 0.00 0.00 0.00 47 1015.6
20260503184004 64 121 7.0 11.3 0.00 0.00 0.00 47 1015.5
20260503183004 65 123 7.0 12.2 0.00 0.00 0.00 46 1015.5
20260503182005 65 124 6.1 11.3 0.00 0.00 0.00 46 1015.4
20260503181004 65 126 7.0 13.0 0.00 0.00 0.00 45 1015.2
20260503180004 66 130 7.0 13.0 0.00 0.00 0.00 44 1015.3
20260503175003 66 128 7.0 11.3 0.00 0.00 0.00 44 1015.2
20260503174003 67 126 8.7 14.8 0.00 0.00 0.00 43 1015.2
20260503173004 67 130 8.7 13.9 0.00 0.00 0.00 42 1015.1
20260503172004 68 129 10.4 16.5 0.00 0.00 0.00 41 1015.1
20260503171004 68 127 9.6 19.1 0.00 0.00 0.00 41 1015.1
20260503151004 70 139 11.3 20.0 0.00 0.00 0.00 39 1015.6
20260503131004 70 141 12.2 19.1 0.00 0.00 0.00 41 1016.8
20260503081003 62 137 9.6 19.1 0.00 0.00 0.00 51 1019.4
20260503072003 58 126 6.1 10.4 0.00 0.00 0.00 55 1019.3
20260503071004 57 135 7.0 14.8 0.00 0.00 0.00 58 1019.3
20260503055003 54 103 9.6 15.6 0.00 0.00 0.00 59 1018.7
20260503054003 54 102 7.8 12.2 0.00 0.00 0.00 60 1018.6
20260503053003 53 101 7.0 13.0 0.00 0.00 0.00 61 1018.5
20260503052003 53 94 7.8 11.3 0.00 0.00 0.00 61 1018.5
20260503051003 52 94 7.0 13.0 0.00 0.00 0.00 62 1018.5
20260503050003 52 89 7.0 12.2 0.00 0.00 0.00 62 1018.4
20260503045003 52 85 7.8 13.0 0.00 0.00 0.00 63 1018.4
20260503044003 51 85 7.8 13.0 0.00 0.00 0.00 63 1018.4
20260503043003 51 83 6.1 11.3 0.00 0.00 0.00 63 1018.4
20260503042003 51 85 5.2 10.4 0.00 0.00 0.00 63 1018.5
20260503041004 51 86 7.0 10.4 0.00 0.00 0.00 63 1018.4
20260503040004 51 83 7.0 12.2 0.00 0.00 0.00 63 1018.3
20260503035003 51 83 7.0 11.3 0.00 0.00 0.00 63 1018.4
20260503034003 51 82 6.1 11.3 0.00 0.00 0.00 63 1018.4
20260503033003 51 81 7.0 11.3 0.00 0.00 0.00 62 1018.4
20260503032004 51 82 6.1 11.3 0.00 0.00 0.00 60 1018.3
20260503031003 52 85 5.2 9.6 0.00 0.00 0.00 57 1018.3
20260503030004 53 82 7.0 10.4 0.00 0.00 0.00 55 1018.2
20260503025004 54 85 6.1 10.4 0.00 0.00 0.00 53 1018.2
20260503024003 54 88 5.2 9.6 0.00 0.00 0.00 52 1018.3
20260503023003 55 84 5.2 8.7 0.00 0.00 0.00 51 1018.4
20260503022003 55 87 4.3 7.8 0.00 0.00 0.00 51 1018.4
20260503021003 55 85 5.2 9.6 0.00 0.00 0.00 51 1018.4